Location: 相模原市立博物館
(35.5593°N, 139.3931°E)
Time: 23:08:44
(UTC+09:00)

ISS - Visible Passes

Search period start: 26 June 2022 00:00
Search period end: 06 July 2022 00:00
Orbit: 415 x 420 km, 51.6° (Epoch: 26 June)

Date Brightness Start Highest point End Pass type
(mag) Time Alt. Az. Time Alt. Az. Time Alt. Az.
26 Jun -3.8 03:23:35 19° SW 03:25:49 78° NW 03:29:11 10° NE visible
27 Jun -3.5 02:37:25 49° SSE 02:37:47 53° SE 02:41:06 10° ENE visible
28 Jun -1.6 01:51:21 21° E 01:51:21 21° E 01:52:56 10° ENE visible
28 Jun -2.1 03:24:17 12° W 03:26:46 26° NNW 03:29:40 10° NNE visible
29 Jun -3.0 02:38:22 38° WNW 02:39:00 43° NW 02:42:15 10° NE visible
30 Jun -2.4 01:52:34 40° NE 01:52:34 40° NE 01:54:52 10° NE visible
30 Jun -1.1 03:27:12 10° NW 03:28:46 13° NNW 03:30:21 10° N visible
01 Jul -0.8 01:06:55 14° ENE 01:06:55 14° ENE 01:07:31 10° ENE visible
01 Jul -1.5 02:39:52 14° WNW 02:41:16 18° NNW 02:43:39 10° NNE visible
02 Jul -1.8 01:54:22 25° NNW 01:54:22 25° NNW 01:56:56 10° NNE visible
03 Jul -1.0 01:08:59 20° NNE 01:08:59 20° NNE 01:10:15 10° NE visible
04 Jul -0.9 01:56:45 11° NW 01:57:38 12° NNW 01:59:07 10° N visible
05 Jul -0.9 01:11:39 16° NNW 01:11:39 16° NNW 01:13:13 10° NNE visible
